Theta_e
315 315 316 317 316 315 314 315 315 315 315 316 317 317 318 318 319 325 332 333 336 336 335 339 342 343 343 344 348 346 356 356 352 348 350 355 356 354 350 351 351 348 353 351 347
314 314 315 317 317 316 315 315 315 315 316 316 317 316 316 316 321 326 332 332 332 333 337 340 340 341 343 344 348 351 353 349 347 346 346 353 350 351 353 352 352 351 350 348 345
312 313 313 315 317 316 316 316 315 315 315 316 316 316 316 316 328 333 331 331 333 334 336 338 339 341 342 343 346 348 353 347 348 348 346 347 347 353 354 357 351 353 350 347 345
310 311 311 312 315 316 316 316 316 315 316 316 316 316 316 322 335 330 328 330 335 334 336 340 341 342 344 343 345 347 347 347 348 348 349 347 348 354 351 353 350 349 348 347 347
310 310 310 312 316 316 317 317 317 316 315 316 316 315 318 329 329 330 330 330 330 334 339 341 340 342 345 345 344 348 346 347 347 350 350 349 347 353 351 350 349 348 348 348 347
309 310 310 312 315 316 317 318 317 316 315 316 315 315 329 329 330 330 331 332 333 334 338 339 339 340 343 344 344 344 348 347 350 352 353 352 351 350 350 349 349 348 348 348 346
309 309 310 312 314 316 317 318 317 316 315 315 315 318 325 326 326 327 331 332 334 333 335 337 337 339 341 343 343 344 352 352 353 343 347 352 354 352 349 348 349 349 348 348 346
309 309 310 310 314 316 318 319 317 315 315 315 315 323 326 325 324 325 329 332 333 332 334 335 335 338 340 343 345 351 353 356 346 347 342 349 358 353 350 349 349 348 348 348 346
306 307 308 309 312 316 319 318 314 315 315 315 319 325 326 325 324 323 327 332 336 336 336 337 336 339 341 343 347 349 356 354 350 348 341 343 353 353 352 350 348 348 348 347 348
307 307 307 308 312 316 319 315 317 314 316 323 323 326 328 326 324 323 329 332 336 338 339 338 340 339 342 345 359 357 350 349 355 351 353 356 361 353 354 353 350 349 349 348 348
307 308 308 309 312 315 319 324 324 325 326 324 324 323 326 325 324 327 330 332 335 335 339 339 341 341 344 346 348 349 350 352 349 352 350 356 357 354 353 353 353 351 349 349 349
307 308 309 309 312 315 316 324 327 326 328 327 324 326 325 324 324 324 326 332 336 337 337 338 341 341 342 343 346 345 347 350 347 341 342 348 351 349 352 351 352 353 351 350 350
309 308 309 309 312 315 321 324 325 325 326 326 327 324 325 325 323 324 327 331 336 338 337 339 340 340 342 345 347 346 347 345 344 343 342 343 348 348 347 349 350 350 350 350 350
312 308 309 310 319 327 327 326 324 324 326 327 326 325 324 324 324 325 327 330 334 338 338 339 341 343 342 341 344 343 343 344 345 345 346 341 346 351 346 353 353 351 350 349 350
314 309 310 311 314 325 328 325 325 325 334 327 326 325 325 324 326 324 326 328 332 336 337 339 341 341 343 343 341 342 341 342 342 343 344 345 347 354 348 353 355 352 351 349 348
314 309 314 318 318 320 326 326 324 327 329 327 326 325 323 324 325 326 325 327 330 334 337 337 338 340 342 342 342 342 341 338 338 339 347 347 348 349 349 349 347 347 352 351 350
314 310 314 316 328 327 325 327 327 328 327 330 328 326 324 324 324 325 325 324 327 331 334 336 337 339 341 341 343 341 344 343 341 347 352 346 345 347 345 348 348 349 347 351 352
313 315 320 317 323 325 327 329 330 327 328 330 328 325 324 324 324 325 326 325 326 328 332 336 337 337 339 341 340 343 341 343 355 358 357 349 353 350 344 342 343 344 344 348 350
316 323 323 325 321 326 329 330 329 332 326 331 329 327 326 324 324 325 326 326 325 326 329 333 335 335 337 340 338 342 342 344 348 343 346 348 346 343 346 346 345 347 350 349 353
315 329 330 328 325 326 330 329 329 330 330 329 328 327 327 325 324 325 326 326 326 326 327 330 332 334 335 338 337 337 338 344 353 356 351 350 350 349 355 354 351 351 353 355 360
321 334 330 327 325 328 331 330 330 330 328 328 328 329 327 327 326 325 326 327 327 327 327 328 330 333 334 339 337 338 337 339 342 353 346 346 346 352 350 344 346 351 355 357 357
329 336 330 327 327 328 330 329 327 330 327 327 328 328 327 327 327 326 326 327 328 327 327 327 330 334 337 336 338 337 335 335 340 340 338 337 352 349 347 345 347 354 354 356 356
333 334 328 327 328 327 328 328 330 330 327 327 327 328 328 328 327 326 326 329 328 327 327 328 330 334 339 338 335 334 335 336 337 338 344 339 351 348 344 352 356 355 356 359 358
332 337 330 328 327 329 331 329 329 329 328 327 328 328 328 328 329 330 327 329 328 328 338 332 330 334 338 341 334 334 335 338 338 340 341 343 350 346 349 354 358 357 358 358 359
331 338 339 336 328 328 330 331 330 328 327 326 328 328 330 329 330 331 334 330 328 331 328 329 331 332 334 336 337 337 336 334 335 336 338 342 338 347 343 345 359 356 356 357 357
335 337 341 341 334 328 325 329 330 331 329 329 327 329 330 331 331 331 332 333 331 329 328 329 334 333 336 336 336 336 335 336 336 336 335 339 344 343 344 347 351 355 355 356 357
325 327 333 333 336 334 331 329 330 331 332 331 330 328 331 331 331 335 338 337 332 331 329 330 331 335 338 335 336 337 334 333 333 336 336 338 345 348 350 350 356 355 352 354 353
Wind_Speed
13 13 13 13 12 12 11 11 11 12 13 15 16 18 20 23 24 18 16 1 4 9 10 16 19 19 15 14 17 21 4 3 7 8 8 12 13 9 6 8 11 6 18 23 29
12 13 13 13 13 12 12 12 12 12 13 14 16 17 19 22 22 20 11 9 9 11 9 18 15 10 12 8 8 5 4 11 12 12 8 15 9 10 8 6 8 17 21 28 28
14 14 14 13 13 13 12 12 12 12 13 14 16 17 18 21 11 15 9 8 10 12 12 16 21 18 16 10 12 7 2 8 13 15 11 8 2 15 14 2 10 18 21 22 24
14 14 15 15 14 14 13 12 12 12 12 13 15 18 18 9 4 6 6 5 9 10 15 20 19 19 15 3 9 7 8 8 12 8 15 10 4 17 4 9 16 18 21 20 19
14 15 15 15 15 15 14 13 12 11 11 12 13 16 12 9 12 10 5 4 8 10 15 19 15 10 8 6 8 13 4 12 8 15 10 11 7 13 6 7 17 16 18 19 17
15 15 15 16 17 16 16 13 12 10 10 10 11 13 6 15 7 7 8 8 13 17 18 17 14 9 8 7 8 7 28 8 9 25 16 9 4 9 11 9 16 17 17 18 17
15 16 16 17 17 16 16 14 11 9 8 8 9 8 12 17 10 5 10 12 15 14 15 14 8 12 14 3 9 13 23 20 20 25 9 3 3 11 11 13 14 16 16 16 17
16 16 18 18 17 16 16 15 10 8 7 7 8 5 8 17 13 19 14 15 16 16 15 16 13 14 14 3 12 8 13 8 9 5 2 10 6 6 10 14 14 15 16 17 18
18 18 18 18 17 16 16 13 7 6 6 6 7 9 17 4 15 19 18 19 18 18 16 14 13 15 17 13 5 11 7 9 13 10 9 12 7 17 15 14 13 14 15 14 16
19 19 19 18 16 17 14 9 7 6 5 7 14 10 19 13 15 18 21 18 15 15 15 14 13 14 4 3 5 13 3 7 11 13 19 22 20 20 18 16 15 15 16 14 16
21 20 19 17 16 17 14 6 4 6 15 14 12 13 5 11 4 9 15 16 14 14 16 16 13 16 9 5 20 22 19 17 26 27 16 19 7 24 21 15 15 14 16 16 15
24 22 19 17 16 16 7 6 11 12 11 24 21 19 21 4 8 14 18 16 17 17 16 17 17 6 8 8 19 18 16 19 18 5 6 6 12 18 17 16 17 16 16 17 16
26 24 20 17 18 11 13 17 14 13 8 17 24 21 15 11 12 11 20 19 18 19 20 20 19 12 16 12 22 23 13 8 6 6 9 4 4 13 2 12 14 15 16 17 17
28 27 22 17 9 9 14 12 11 9 7 14 20 18 20 14 18 20 21 18 19 21 21 20 6 20 7 10 18 7 9 7 12 7 8 3 4 3 9 22 20 15 14 14 16
30 32 21 12 15 8 6 3 6 5 6 14 16 6 15 21 3 20 19 20 22 22 15 19 18 22 12 16 9 7 13 15 12 15 12 9 5 7 2 15 24 20 18 14 14
32 32 20 3 8 17 10 6 6 6 12 9 10 11 15 17 20 15 16 15 20 22 20 23 20 11 12 21 5 9 14 14 16 14 6 11 14 4 9 17 31 34 26 18 16
37 30 17 9 5 4 8 7 6 10 7 10 15 13 18 18 20 19 17 17 19 18 20 20 21 16 18 10 17 6 19 14 6 3 8 16 15 10 13 20 26 22 12 16 18
40 21 7 17 7 10 10 8 9 14 19 5 5 15 16 17 19 19 14 16 21 21 15 16 17 20 10 19 9 12 14 9 6 7 4 19 7 9 1 9 10 8 6 2 17
29 5 7 9 18 9 7 11 10 13 8 4 8 11 15 16 14 20 17 17 19 22 21 15 18 15 18 22 15 17 12 13 8 4 8 3 8 25 14 11 10 10 8 5 8
13 11 15 11 15 12 8 17 20 18 7 5 12 10 12 16 17 19 16 18 17 22 22 21 16 17 20 20 19 15 15 2 4 7 8 6 13 9 7 21 30 10 9 7 11
5 6 15 14 14 7 11 17 19 10 4 9 15 16 13 12 17 16 14 12 15 16 20 19 19 18 18 17 18 15 13 6 13 19 7 5 5 13 16 19 26 10 12 10 10
9 8 13 17 8 9 13 20 19 6 10 9 11 15 9 13 14 15 17 15 13 13 16 17 14 14 15 16 23 21 14 17 12 12 10 9 2 8 10 17 21 13 14 13 13
5 4 11 16 9 11 18 21 22 6 15 10 10 11 15 15 5 13 16 11 9 8 13 13 16 14 5 16 11 11 18 15 14 12 14 12 3 9 12 19 12 12 13 11 11
5 4 6 9 12 17 16 19 19 9 16 13 11 12 9 12 11 5 14 7 9 10 5 10 17 16 9 10 10 19 20 13 19 12 5 10 11 8 13 8 7 10 10 11 10
4 4 9 9 12 16 18 17 14 15 16 14 12 12 10 10 14 7 10 10 10 4 7 11 17 19 14 9 18 9 15 17 11 16 16 12 7 22 14 1 9 12 13 12 12
4 6 4 19 12 18 15 14 15 10 12 12 13 14 14 15 14 12 13 12 12 11 12 15 15 17 18 16 21 9 8 11 13 15 14 5 7 17 21 19 20 13 14 13 13
19 14 7 12 15 8 10 14 13 17 15 13 11 14 17 15 18 11 9 15 11 14 15 16 13 15 16 17 12 17 13 15 12 16 8 4 13 21 24 26 17 17 15 13 13
Wind_Direction
356 352 349 346 341 334 326 318 314 316 322 323 323 326 327 324 317 302 264 20 253 283 276 277 251 250 247 249 82 48 331 109 72 72 104 138 107 136 117 112 48 85 136 155 146
353 349 347 346 340 334 325 317 310 310 315 317 319 322 322 323 315 280 266 256 271 266 264 270 296 284 258 217 124 134 189 36 66 81 97 161 110 128 101 89 115 109 123 141 155
349 347 345 341 341 334 325 316 308 309 312 314 315 317 319 323 286 240 198 240 249 247 256 281 282 268 250 239 141 157 148 91 58 51 65 103 140 102 122 140 134 132 143 152 161
347 344 344 339 336 330 324 316 307 306 306 311 313 315 315 307 272 135 161 198 230 246 266 267 259 259 256 79 100 39 107 100 96 126 76 84 172 148 91 74 139 141 150 160 164
344 343 340 337 332 327 322 317 307 300 300 304 311 318 333 239 252 155 179 194 237 242 252 265 281 294 33 245 192 173 122 105 135 96 113 65 52 91 99 104 120 142 155 165 173
344 341 338 335 331 327 325 318 304 293 291 296 305 314 266 270 244 155 203 215 241 234 254 260 290 14 275 242 83 41 278 137 355 44 34 89 151 110 126 147 132 148 165 168 182
344 340 338 336 333 330 324 314 300 286 281 288 293 313 272 254 307 260 228 238 243 241 276 283 315 296 284 235 164 205 40 360 79 105 263 123 21 102 142 127 144 161 167 171 185
342 339 334 334 332 328 322 311 296 278 266 271 275 278 263 257 273 254 243 247 242 248 255 286 291 289 285 351 128 161 70 42 252 112 37 90 251 145 153 154 168 165 171 169 181
340 335 332 332 331 328 322 307 283 263 249 248 266 222 266 227 232 239 240 239 239 234 246 266 278 272 266 223 219 76 112 163 290 291 141 99 271 243 170 169 177 169 169 178 175
338 334 330 330 329 324 322 300 268 247 245 245 262 275 242 248 237 221 221 234 252 231 234 242 249 254 229 320 100 311 199 208 160 257 208 113 268 171 170 177 175 188 172 190 177
341 336 330 329 325 323 324 305 212 206 225 221 187 219 138 224 315 220 212 217 243 251 232 227 243 245 121 80 149 204 235 243 306 201 204 185 202 172 161 181 177 189 183 186 195
348 339 331 325 316 312 298 246 338 326 302 224 250 241 263 278 265 216 230 228 217 232 234 237 227 174 318 141 177 201 273 207 248 41 173 237 188 317 153 180 181 193 186 185 198
348 341 332 321 312 287 231 256 320 313 275 268 214 230 237 212 246 233 204 216 220 226 233 238 232 215 197 138 254 206 174 1 290 286 285 47 64 346 140 310 198 195 194 188 189
344 341 333 322 309 309 244 263 259 291 278 240 205 217 220 217 240 250 207 215 226 222 237 247 150 294 238 229 231 307 21 195 246 248 228 47 290 302 286 23 292 203 196 197 188
340 336 328 314 303 269 11 286 293 261 275 141 174 202 201 202 277 207 224 213 227 230 227 240 205 215 239 268 94 314 254 244 260 280 142 87 253 288 352 79 302 291 186 196 190
336 331 320 289 247 257 309 287 246 236 242 157 140 191 196 204 239 184 217 219 228 241 242 255 263 195 242 266 81 356 312 230 248 252 210 193 221 236 213 165 186 242 257 184 186
333 322 293 261 224 309 239 249 219 241 195 158 177 192 205 193 219 233 189 208 219 225 238 241 255 223 221 240 104 145 257 269 249 327 358 338 314 188 217 175 194 219 180 180 179
330 309 290 238 247 268 250 226 247 222 254 100 197 175 202 206 206 215 198 215 216 230 226 224 230 244 218 248 245 239 259 311 42 23 313 307 1 324 202 101 103 118 108 267 185
331 276 228 243 213 235 235 223 226 257 275 137 204 220 200 203 200 223 206 213 209 226 240 241 223 231 212 245 232 214 249 90 132 246 223 204 278 240 205 141 130 117 128 159 62
320 265 238 170 177 208 231 243 247 312 339 6 283 212 224 207 194 211 207 221 225 203 233 251 270 232 213 228 229 234 238 196 41 336 263 207 233 178 80 62 323 129 111 86 70
258 239 130 161 172 216 230 239 240 247 261 263 275 296 237 203 194 226 221 214 222 231 208 241 253 255 223 197 240 219 230 203 231 185 246 214 240 95 131 137 227 149 128 125 111
280 263 155 163 194 221 233 246 268 290 185 251 284 298 298 264 195 215 238 240 188 233 217 230 252 247 240 197 213 239 227 226 246 244 258 300 132 21 18 277 221 133 136 127 120
264 222 174 194 222 221 226 256 262 231 256 220 238 255 280 288 269 204 243 208 215 218 243 212 239 259 135 240 198 236 241 253 273 288 286 253 67 342 12 335 93 129 128 124 119
274 210 151 211 237 274 282 219 245 222 271 277 262 274 264 276 270 224 240 215 197 209 262 272 243 245 220 316 232 207 226 226 248 248 224 102 134 162 192 210 171 151 141 134 133
249 281 11 272 223 224 263 286 218 241 205 235 258 262 265 246 261 222 277 228 161 156 251 239 241 256 277 167 323 225 220 232 259 258 286 140 273 189 184 176 177 170 150 155 144
297 4 179 288 272 202 228 255 281 266 240 205 239 239 234 264 257 231 211 257 210 189 219 223 249 256 270 194 224 208 216 227 219 271 284 154 73 125 127 190 247 173 162 165 157
345 337 293 281 283 258 245 220 236 248 254 264 241 226 253 230 259 313 334 297 232 185 204 225 235 239 254 250 252 257 226 237 245 216 257 284 95 133 163 194 180 173 168 159 155